Regional Weather Roundup
Issued by NWS

Home | Current Version | Previous Version | Text Only | Print | Product List | Glossary Off
Versions: 1 2 3 4 5 6 7 8 9 10 11 12 13 14 15 16 17 18 19 20 21 22 23 24 25 26 27 28 29 30 31 32 33 34 35 36 37 38 39 40 41 42 43 44 45 46 47 48 49 50

000
ASUS44 KMEG 262300
RWRTN
TENNESSEE HOURLY STATE WEATHER ROUNDUP
NATIONAL WEATHER SERVICE MEMPHIS TN
600 PM CDT THU MAR 26 2015

TNZ002-004-019-021-049-052-054-088>092-270000-
WEST TENNESSEE

CITY           SKY/WX    TMP DP  RH WIND       PRES   REMARKS
MEMPHIS INTL   CLOUDY    48  42  80 N15       29.99R
NWS MEMPHIS      N/A     47 N/A N/A MISG        N/A
JACKSON        CLOUDY    47  41  80 N10       29.98R
DYERSBURG      CLOUDY    45  28  53 N14       30.02S
UNION CITY     PTSUNNY   43  43 100 N14       30.00R
PARIS          CLOUDY    43  39  87 N8        29.99R
LEXINGTON      CLOUDY    45  41  87 N7        29.95S
SAVANNAH       CLOUDY    45  45 100 N9        29.95R
$$

TNZ008-025-027-028-033-062-065-066-270000-
NORTH MIDDLE TENNESSEE

CITY           SKY/WX    TMP DP  RH WIND       PRES   REMARKS
NASHVILLE      LGT RAIN  45  42  89 N8G20     29.96R
CLARKSVILLE    LGT RAIN  43  40  89 N8        29.97R
COOKEVILLE     CLOUDY    48  46  93 N10       29.89S
CROSSVILLE     CLOUDY    49  46  90 NW14G24   29.86R FOG
$$

TNZ061-075-076-078-094-096-097-270000-
SOUTH MIDDLE TENNESSEE

CITY           SKY/WX    TMP DP  RH WIND       PRES   REMARKS
FAYETTEVILLE   CLOUDY    48  46  93 N12       29.87R
TULLAHOMA      CLOUDY    48  45  87 N15       29.90R
WINCHESTER     CLOUDY    50  46  87 N10       29.87S
COLUMBIA       CLOUDY   N/A N/A N/A N13       29.92S
SHELBYVILLE    CLOUDY    48  46  93 N16       29.92R
$$

TNZ017-018-042-046-047-270000-
NORTHEAST TENNESSEE

CITY           SKY/WX    TMP DP  RH WIND       PRES   REMARKS
TRI CITIES     CLOUDY    66  53  63 NW16G31   29.71R
ELIZABETHTON   MOCLDY    68  52  56 W7        29.69S
$$

TNZ012-013-036-069-073-074-270000-
CENTRAL EAST TENNESSEE

CITY           SKY/WX    TMP DP  RH WIND       PRES   REMARKS
KNOXVILLE      LGT RAIN  61  58  90 NW14      29.73R
OAK RIDGE      CLOUDY    60  56  86 NE5       29.77R
GATLINBURG     CLOUDY    72  54  53 NW17G29   29.71R
$$

TNZ083-085-099-270000-
SOUTHEAST TENNESSEE

CITY           SKY/WX    TMP DP  RH WIND       PRES   REMARKS
CHATTANOOGA    CLOUDY    73  53  49 S12       29.74S
$$

SKY/WX REPORTED AS FAIR MEANS FEW OR NO CLOUDS BELOW
12 THOUSAND FEET.



USA.gov is the U.S. government's official web portal to all federal, state and local government web resources and services.